Date String (YYYY-MM-DD hh:mm:ss) UTC,Instrument flags,absolute air pressure of the measurement (hPa),sample flow rate (lpm),inlet stack bypass flow (lpm),air temperature of the measurement (°C),ambient temperature measured by the external sensor (°C),aerosol sample conditioner tube jacket temperature (°C),OPC LED temperature (°C),internal box temperature (°C),relative humidity of the measurement (%),span deviation,mass concentration of particles derived from Lorenz-Mie calculation of OPC scattering (μg/m³),mass concentration of particles derived from Lorenz-Mie calculation of OPC scattering (μg/m³),mass concentration of particles derived from Lorenz-Mie calculation of OPC scattering (μg/m³)
DateTimeUTC,F1_M11,P_M11,Q1_M11,Q2_M11,T1_M11,T2_M11,T3_M11,T4_M11,T5_M11,U1_M11,ZSPAN_M11,X2_M11,X0_M11,X1_M11
2023-09-22 20:00:00,SystemResetWarning,0827.2,5.00,000.00,027.8,024.8,000.0,036.1,029.3,18.3,-000.2,0006.25,0020.98,0004.98
2023-09-22 20:01:00,SystemResetWarning,0827.2,5.00,000.00,027.8,025.3,000.0,036.2,029.4,19.6,-000.7,0006.25,0021.92,0004.96
2023-09-22 20:02:00,SystemResetWarning,0827.1,4.99,000.00,027.8,025.7,000.0,036.2,029.5,20.6,-000.7,0006.29,0021.39,0004.94
2023-09-22 20:03:00,SystemResetWarning,0827.2,5.00,000.00,027.8,026.1,000.0,036.2,029.6,20.5,-001.4,0006.33,0020.98,0004.92
2023-09-22 20:04:00,SystemResetWarning,0827.2,5.01,000.00,027.9,026.4,000.0,036.2,029.6,20.1,-001.7,0006.31,0020.52,0004.91
2023-09-22 20:05:00,SystemResetWarning,0827.2,4.99,000.00,027.9,026.6,000.0,036.2,029.7,19.6,-001.5,0006.29,0019.38,0004.90
2023-09-22 20:06:00,SystemResetWarning,0827.2,4.99,000.00,028.0,026.9,000.0,036.2,029.8,20.0,-000.7,0006.27,0018.66,0004.89
2023-09-22 20:07:00,SystemResetWarning,0827.2,5.01,000.00,028.1,027.1,000.0,036.3,029.9,18.9,-000.2,0006.29,0018.16,0004.91
2023-09-22 20:08:00,SystemResetWarning,0827.2,5.01,000.00,028.1,027.2,000.0,036.3,030.0,19.2,0000.4,0006.37,0018.35,0004.96
2023-09-22 20:09:00,SystemResetWarning,0827.2,4.99,000.00,028.2,026.9,000.0,036.3,029.9,19.1,0000.7,0006.37,0018.37,0004.99
2023-09-22 20:10:00,SystemResetWarning,0827.2,5.00,000.00,028.1,025.2,000.0,036.3,029.5,18.5,0000.3,0006.33,0017.61,0005.01
2023-09-22 20:11:00,SystemResetWarning,0827.2,5.01,000.00,028.0,024.3,000.0,036.2,029.3,18.3,0000.0,0006.31,0018.33,0005.01
2023-09-22 20:12:00,SystemResetWarning,0827.2,5.01,000.00,027.9,024.5,000.0,036.2,029.3,17.9,0000.0,0006.25,0017.61,0005.00
2023-09-22 20:13:00,SystemResetWarning,0827.2,4.99,000.00,027.8,024.8,000.0,036.2,029.3,17.9,0000.0,0006.18,0017.30,0004.98
2023-09-22 20:14:00,SystemResetWarning,0827.1,5.00,000.00,027.8,025.3,000.0,036.2,029.4,18.0,0000.0,0006.16,0016.52,0004.97
2023-09-22 20:15:00,SystemResetWarning,0827.1,5.00,000.00,027.9,025.7,000.0,036.2,029.5,18.6,0000.0,0006.13,0017.05,0004.96
2023-09-22 20:16:00,SystemResetWarning,0827.1,5.00,000.00,027.9,026.0,000.0,036.2,029.6,17.9,0000.1,0006.18,0018.01,0004.95
2023-09-22 20:17:00,SystemResetWarning,0827.1,5.00,000.00,027.9,026.4,000.0,036.2,029.7,17.5,-000.4,0006.22,0017.89,0004.94
2023-09-22 20:18:00,SystemResetWarning,0827.1,5.00,000.00,028.0,026.6,000.0,036.2,029.8,17.7,-000.3,0006.16,0017.54,0004.90
2023-09-22 20:19:00,SystemResetWarning,0827.1,5.00,000.00,028.0,026.9,000.0,036.3,029.9,17.6,-000.5,0006.09,0016.72,0004.83
2023-09-22 20:20:00,SystemResetWarning,0827.1,5.00,000.00,028.1,027.1,000.0,036.3,029.9,16.7,-001.5,0006.04,0015.64,0004.76
2023-09-22 20:21:00,SystemResetWarning,0827.0,4.99,000.00,028.2,027.2,000.0,036.3,030.0,16.6,-001.5,0006.00,0015.57,0004.72
2023-09-22 20:22:00,SystemResetWarning,0827.0,4.99,000.00,028.2,027.2,000.0,036.4,030.1,16.4,-001.6,0005.89,0014.67,0004.66
2023-09-22 20:23:00,SystemResetWarning,0826.9,5.00,000.00,028.2,025.9,000.0,036.3,029.8,16.5,-000.8,0005.89,0014.69,0004.64
2023-09-22 20:24:00,SystemResetWarning,0826.9,5.01,000.00,028.1,024.4,000.0,036.3,029.5,16.7,-000.3,0005.84,0015.12,0004.61
2023-09-22 20:25:00,SystemResetWarning,0826.9,5.02,000.00,028.0,024.4,000.0,036.2,029.4,16.4,-000.4,0005.75,0015.10,0004.58
2023-09-22 20:26:00,SystemResetWarning,0826.9,5.00,000.00,027.9,024.7,000.0,036.2,029.4,16.5,0000.0,0005.71,0014.66,0004.54
2023-09-22 20:27:00,SystemResetWarning,0826.9,5.00,000.00,027.9,025.1,000.0,036.2,029.4,16.6,0000.0,0005.62,0013.79,0004.49
2023-09-22 20:28:00,SystemResetWarning,0826.9,5.00,000.00,027.9,025.6,000.0,036.3,029.5,17.0,0000.0,0005.58,0013.74,0004.47
2023-09-22 20:29:00,SystemResetWarning,0827.0,4.98,000.00,027.9,025.9,000.0,036.3,029.6,16.7,0000.0,0005.59,0013.74,0004.46
2023-09-22 20:30:00,SystemResetWarning,0826.9,4.99,000.00,028.0,026.3,000.0,036.3,029.7,16.4,0000.0,0005.57,0014.40,0004.44
2023-09-22 20:31:00,SystemResetWarning,0826.9,5.01,000.00,028.0,026.6,000.0,036.3,029.8,16.3,0000.0,0005.53,0014.40,0004.41
2023-09-22 20:32:00,SystemResetWarning,0826.9,5.00,000.00,028.1,026.8,000.0,036.3,029.9,15.8,0000.0,0005.47,0014.05,0004.37
2023-09-22 20:33:00,SystemResetWarning,0826.9,5.01,000.00,028.1,027.0,000.0,036.3,030.0,16.0,0000.0,0005.46,0013.98,0004.36
2023-09-22 20:34:00,SystemResetWarning,0827.0,4.99,000.00,028.2,027.2,000.0,036.4,030.1,15.8,0000.0,0005.43,0014.02,0004.33
2023-09-22 20:35:00,SystemResetWarning,0826.9,4.99,000.00,028.2,027.1,000.0,036.4,030.0,15.9,0000.0,0005.39,0013.95,0004.28
2023-09-22 20:36:00,SystemResetWarning,0826.9,5.01,000.00,028.2,025.4,000.0,036.3,029.6,15.9,0000.0,0005.33,0013.45,0004.23
2023-09-22 20:37:00,SystemResetWarning,0826.8,5.00,000.00,028.0,024.3,000.0,036.3,029.4,15.5,0000.0,0005.32,0013.18,0004.22
2023-09-22 20:38:00,SystemResetWarning,0826.8,5.02,000.00,028.0,024.5,000.0,036.3,029.4,15.7,0000.0,0005.36,0013.63,0004.22
2023-09-22 20:39:00,SystemResetWarning,0826.8,5.00,000.00,027.9,024.8,000.0,036.3,029.4,15.6,0000.0,0005.30,0014.67,0004.21
2023-09-22 20:40:00,SystemResetWarning,0826.8,5.00,000.00,027.9,025.2,000.0,036.3,029.5,15.6,0000.0,0005.21,0015.37,0004.18
2023-09-22 20:41:00,SystemResetWarning,0826.9,5.01,000.00,027.9,025.7,000.0,036.3,029.6,15.6,0000.0,0005.18,0015.16,0004.16
2023-09-22 20:42:00,SystemResetWarning,0826.9,5.00,000.00,027.9,026.1,000.0,036.3,029.7,15.5,0000.0,0005.09,0014.51,0004.14
2023-09-22 20:43:00,SystemResetWarning,0826.9,5.00,000.00,028.0,026.4,000.0,036.3,029.8,15.6,0000.0,0005.05,0015.19,0004.12
2023-09-22 20:44:00,SystemResetWarning,0826.9,5.00,000.00,028.1,026.7,000.0,036.3,029.8,15.2,0000.0,0005.05,0015.43,0004.10
2023-09-22 20:45:00,SystemResetWarning,0826.8,5.00,000.00,028.1,026.9,000.0,036.3,029.9,15.0,0000.0,0005.02,0015.04,0004.07
2023-09-22 20:46:00,SystemResetWarning,0826.8,5.00,000.00,028.2,027.1,000.0,036.4,030.0,15.0,0000.0,0005.00,0014.18,0004.07
2023-09-22 20:47:00,SystemResetWarning,0826.8,5.00,000.00,028.2,027.2,000.0,036.4,030.1,15.2,0000.0,0005.08,0014.34,0004.08
2023-09-22 20:48:00,SystemResetWarning,0826.8,4.99,000.00,028.2,025.9,000.0,036.4,029.8,15.0,0000.0,0005.10,0014.42,0004.07
2023-09-22 20:49:00,SystemResetWarning,0826.8,5.00,000.00,028.1,024.4,000.0,036.3,029.5,15.0,0000.0,0005.06,0014.33,0004.04
2023-09-22 20:50:00,SystemResetWarning,0826.8,5.01,000.00,028.0,024.4,000.0,036.2,029.4,15.0,0000.0,0005.06,0013.75,0004.03
2023-09-22 20:51:00,SystemResetWarning,0826.8,5.01,000.00,027.9,024.7,000.0,036.2,029.4,15.0,0000.0,0005.08,0014.17,0004.02
2023-09-22 20:52:00,SystemResetWarning,0826.8,4.99,000.00,027.9,025.1,000.0,036.3,029.4,15.3,0000.0,0005.00,0013.77,0003.99
2023-09-22 20:53:00,SystemResetWarning,0826.8,5.00,000.00,027.9,025.5,000.0,036.3,029.5,15.2,0000.0,0005.00,0013.75,0003.97
2023-09-22 20:54:00,SystemResetWarning,0826.8,5.00,000.00,028.0,025.9,000.0,036.3,029.6,14.8,0000.0,0005.04,0013.13,0003.94
2023-09-22 20:55:00,SystemResetWarning,0826.8,5.00,000.00,028.0,026.3,000.0,036.3,029.7,14.7,0000.0,0004.98,0013.09,0003.91
2023-09-22 20:56:00,SystemResetWarning,0826.8,5.00,000.00,028.0,026.6,000.0,036.3,029.8,14.3,0000.0,0004.92,0013.70,0003.88
2023-09-22 20:57:00,SystemResetWarning,0826.8,4.99,000.00,028.1,026.8,000.0,036.3,029.9,14.3,0000.0,0004.87,0013.61,0003.86
2023-09-22 20:58:00,SystemResetWarning,0826.8,5.00,000.00,028.2,027.0,000.0,036.4,030.0,14.1,0000.0,0004.80,0013.65,0003.84
2023-09-22 20:59:00,SystemResetWarning,0826.8,4.99,000.00,028.2,027.1,000.0,036.4,030.0,14.0,0000.0,0004.77,0014.15,0003.82
